User: anonymous
Location: Los Gatos B&B
(42.6926°N, 77.0646°W)
Time: 05:13:17
(UTC-04:00)
Language:

Cosmos 2263 Rocket - Orbit

View from above orbital plane
View from above orbital plane
View from above satellite
View from above satellite

Ground track
Ground track

The orbit data is extracted from the following two-line orbital elements,

1 22803U 93059B   14244.53186607  .00000267  00000-0  15759-3 0  3520
2 22803 070.9892 237.9476 0015608 143.7154 216.5031 14.16670362 83864
Epoch (UTC): 01 September 2014 12:45:53
Eccentricity: 0.0015608
inclination: 70.9892°
perigee height: 825 km
apogee height: 848 km
right ascension of ascending node: 237.9476°
argument of perigee: 143.7154°
revolutions per day: 14.16670362
mean anomaly at epoch: 216.5031°
orbit number at epoch: 8386

The dashed part of the orbit path shows where the satellite is in the earth's shadow,  

DLR